Location: Great Falls Observatory Park
(38.9954°N, 77.3130°W)
Time: 15:45:20
(UTC-05:00)

ISS - Pass Details

Date: 29 October 2019
Orbit: 412 x 421 km, 51.6° (Epoch: 22 November)

Event Time Altitude Azimuth Distance (km) Brightness Sun altitude
Exits shadow 06:08:12 25° 336° (NNW) 899 -2.4 -17.0°
Drops below altitude 10° 06:10:58 10° 31° (NNE) 1,508 -0.6 -16.5°
Sets 06:13:20 0° 45° (NE) 2,378 0.7 -16.0°
